Bradford, PA

11:43 PM EST on February 19, 2018 (GMT -0500)
Bradford Regional

Weather History for KBFD - January, 2013

Change the Weather History Date:

Wednesday, January 9, 2013

  Actual Average Record
Temperature  
Mean Temperature 35 °F 21 °F  
Max Temperature 46 °F 29 °F 58 °F (2008)
Min Temperature 24 °F 14 °F -11 °F (1979)
Degree Days  
Heating Degree Days 30 38  
Month to date heating degree days 342  
Since 1 July heating degree days 3398  
Cooling Degree Days 0 0  
Month to date cooling degree days 0  
Year to date cooling degree days 0  
Moisture  
Dew Point 25 °F    
Average Humidity 61    
Maximum Humidity 78    
Minimum Humidity 45    
Precipitation  
Precipitation 0.01 in 0.10 in 0.55 in (1975)
Month to date precipitation 1.02  
Year to date precipitation 1.02  
Sea Level Pressure  
Sea Level Pressure 30.22 in    
Wind  
Wind Speed 6 mph (SW)    
Max Wind Speed 20 mph    
Max Gust Speed 33 mph    
Visibility 9 miles    
Events Rain    
T = Trace of Precipitation, MM = Missing Value Source: NWS Daily Summary

Daily Weather History Graph

Daily Weather History Graph

Search for Another Location

Airport or City:

Trip Planner

Search our weather history database for the weather conditions in past years. The results will help you decide how hot, cold, wet, or windy it might be!

Date:

Astronomy

Jan. 09, 2013 Rise Set
Actual Time 7:41 AM EST 5:02 PM EST
Civil Twilight 7:10 AM EST 5:33 PM EST
Nautical Twilight 6:35 AM EST 6:08 PM EST
Astronomical Twilight 6:02 AM EST 6:41 PM EST
Moon 5:18 AM EST (1/9) 3:02 PM EST (1/9)
Length of Visible Light 10h 23m
Length of Day
9h 21m
Waning Crescent, 6% of the Moon is Illuminated
Jan 9
Waning Crescent
Jan 11
New
Jan 18
First Quarter
Jan 26
Full
Feb 3
Last Quarter

Hourly Weather History & Observations

Time (EST) Temp. Windchill Dew Point Humidity Pressure Visibility Wind Dir Wind Speed Gust Speed Precip Events Conditions
12:53 AM 26.1 °F - 19.0 °F 75% 30.29 in 7.0 mi Calm Calm - N/A   Clear
1:53 AM 27.0 °F 23.0 °F 19.0 °F 72% 30.29 in 7.0 mi SSE 3.5 mph - N/A   Clear
2:53 AM 25.0 °F 20.7 °F 19.0 °F 78% 30.28 in 4.0 mi ESE 3.5 mph - N/A   Haze
3:36 AM 24.1 °F 19.7 °F 17.1 °F 75% 30.22 in 2.5 mi ESE 3.5 mph - N/A   Haze
3:45 AM 27.0 °F - 19.0 °F 72% 30.21 in 5.0 mi Calm Calm - N/A   Haze
3:53 AM 28.0 °F - 19.9 °F 72% 30.26 in 8.0 mi Calm Calm - N/A   Clear
4:53 AM 28.0 °F - 21.0 °F 75% 30.26 in 8.0 mi Calm Calm - N/A   Clear
5:53 AM 37.0 °F 34.5 °F 23.0 °F 57% 30.23 in 10.0 mi Variable 3.5 mph - N/A   Clear
6:53 AM 37.9 °F 33.5 °F 21.9 °F 53% 30.22 in 10.0 mi Variable 5.8 mph - N/A   Clear
7:53 AM 39.0 °F 34.0 °F 21.0 °F 49% 30.22 in 10.0 mi SSW 6.9 mph - N/A   Clear
8:53 AM 39.9 °F 34.5 °F 23.0 °F 51% 30.22 in 10.0 mi SSW 8.1 mph - N/A   Mostly Cloudy
9:53 AM 42.1 °F 36.6 °F 27.0 °F 55% 30.22 in 10.0 mi SSW 9.2 mph - N/A   Overcast
10:53 AM 41.0 °F 35.8 °F 30.0 °F 65% 30.16 in 6.0 mi South 8.1 mph - 0.00 in Rain Light Rain
11:53 AM 41.0 °F 35.2 °F 32.0 °F 70% 30.16 in 10.0 mi SSW 9.2 mph 21.9 mph 0.01 in   Mostly Cloudy
12:11 PM 41.0 °F 35.2 °F 32.0 °F 70% 30.09 in 10.0 mi SW 9.2 mph 20.7 mph N/A   Overcast
12:53 PM 42.1 °F 37.7 °F 33.1 °F 70% 30.12 in 10.0 mi SW 6.9 mph 21.9 mph N/A   Overcast
1:53 PM 44.1 °F 37.1 °F 32.0 °F 63% 30.12 in 10.0 mi WSW 15.0 mph 24.2 mph N/A   Mostly Cloudy
2:30 PM 45.0 °F 38.5 °F 32.0 °F 60% 30.06 in 10.0 mi SW 13.8 mph 24.2 mph N/A   Scattered Clouds
2:53 PM 45.0 °F 40.6 °F 32.0 °F 60% 30.11 in 10.0 mi WSW 8.1 mph 21.9 mph N/A   Clear
3:53 PM 46.0 °F 41.0 °F 30.0 °F 54% 30.13 in 10.0 mi WSW 10.4 mph 20.7 mph N/A   Scattered Clouds
4:53 PM 45.0 °F 41.2 °F 28.9 °F 53% 30.17 in 10.0 mi Variable 6.9 mph 25.3 mph N/A   Scattered Clouds
5:53 PM 43.0 °F 39.5 °F 28.9 °F 58% 30.19 in 10.0 mi Variable 5.8 mph 18.4 mph N/A   Clear
6:53 PM 42.1 °F 37.7 °F 28.0 °F 58% 30.22 in 10.0 mi WSW 6.9 mph - N/A   Clear
7:53 PM 41.0 °F 34.3 °F 25.0 °F 53% 30.25 in 10.0 mi West 11.5 mph - N/A   Clear
8:53 PM 41.0 °F 31.9 °F 21.0 °F 45% 30.28 in 10.0 mi West 19.6 mph 33.4 mph N/A   Clear
9:53 PM 39.0 °F 31.4 °F 21.0 °F 49% 30.32 in 10.0 mi West 12.7 mph 25.3 mph N/A   Clear
10:53 PM 37.9 °F 28.9 °F 21.9 °F 53% 30.36 in 10.0 mi WNW 16.1 mph - N/A   Clear
11:35 PM 37.0 °F 28.5 °F 23.0 °F 57% 30.34 in 10.0 mi WNW 13.8 mph 21.9 mph N/A   Mostly Cloudy
11:53 PM 37.0 °F 28.1 °F 24.1 °F 59% 30.38 in 10.0 mi WNW 15.0 mph 25.3 mph N/A   Mostly Cloudy